| time (UTC) | temp C | wind direction | speed KPH | gust KPH | rain 1hr cm | rain 24hr cm | rain mn cm | humidity % | barometer mb |
| 20260504050542 | 18 | 0 | 0.0 | 0.0 | 0.00 | 4.83 | 4.83 | 92 | 1019.6 |
| 20260504045541 | 18 | 0 | 0.0 | 0.0 | 0.00 | 4.83 | 4.83 | 91 | 1019.5 |
| 20260504045041 | 18 | 0 | 0.0 | 0.0 | 0.00 | 4.83 | 4.83 | 90 | 1019.3 |
| 20260504044554 | 18 | 0 | 0.0 | 0.0 | 0.00 | 4.83 | 4.83 | 89 | 1019.4 |
| 20260504044042 | 18 | 0 | 0.0 | 0.0 | 0.00 | 4.83 | 4.83 | 88 | 1019.3 |
| 20260504043542 | 18 | 0 | 0.0 | 0.0 | 0.00 | 4.83 | 4.83 | 87 | 1019.3 |
| 20260504043110 | 18 | 0 | 0.0 | 0.0 | 0.00 | 4.83 | 4.83 | 88 | 1019.3 |
| 20260504042541 | 18 | 0 | 0.0 | 0.0 | 0.00 | 4.83 | 4.83 | 88 | 1019.4 |
| 20260504042043 | 19 | 0 | 0.0 | 0.0 | 0.00 | 4.83 | 4.83 | 88 | 1019.5 |
| 20260504041549 | 19 | 0 | 0.0 | 0.0 | 0.00 | 4.83 | 4.83 | 88 | 1019.5 |
| 20260504041041 | 19 | 0 | 0.0 | 0.0 | 0.00 | 4.83 | 4.83 | 89 | 1019.4 |
| 20260504040544 | 19 | 0 | 0.0 | 0.0 | 0.00 | 4.83 | 4.83 | 87 | 1019.6 |
| 20260504040048 | 19 | 0 | 0.0 | 0.0 | 0.00 | 4.83 | 4.83 | 85 | 1019.7 |
| 20260504035544 | 19 | 0 | 0.0 | 0.0 | 0.00 | 4.83 | 4.83 | 84 | 1019.5 |
| 20260504035042 | 19 | 0 | 0.0 | 0.0 | 0.00 | 4.83 | 4.83 | 84 | 1019.5 |
| 20260504034554 | 18 | 0 | 0.0 | 0.0 | 0.00 | 4.83 | 4.83 | 85 | 1019.5 |
| 20260504034041 | 18 | 0 | 0.0 | 0.0 | 0.00 | 4.83 | 4.83 | 86 | 1019.5 |
| 20260504033542 | 18 | 0 | 0.0 | 0.0 | 0.00 | 4.83 | 4.83 | 89 | 1019.4 |
| 20260504033102 | 18 | 0 | 0.0 | 0.0 | 0.00 | 4.83 | 4.83 | 90 | 1019.3 |
| 20260504032541 | 18 | 0 | 0.0 | 0.0 | 0.00 | 4.83 | 4.83 | 91 | 1019.3 |
| 20260504032042 | 18 | 0 | 0.0 | 0.0 | 0.00 | 4.83 | 4.83 | 92 | 1019.5 |
| 20260504031556 | 18 | 0 | 0.0 | 0.0 | 0.00 | 4.83 | 4.83 | 92 | 1019.7 |
| 20260504031041 | 18 | 0 | 0.0 | 0.0 | 0.00 | 4.83 | 4.83 | 92 | 1019.8 |
| 20260504030541 | 18 | 0 | 0.0 | 0.0 | 0.00 | 4.83 | 4.83 | 94 | 1019.8 |
| 20260504030109 | 18 | 0 | 0.0 | 0.0 | 0.00 | 4.83 | 4.83 | 95 | 1019.7 |
| 20260504025541 | 18 | 0 | 0.0 | 0.0 | 0.00 | 4.83 | 4.83 | 94 | 1019.6 |
| 20260504025041 | 18 | 0 | 0.0 | 0.0 | 0.00 | 4.83 | 4.83 | 94 | 1019.6 |
| 20260504024550 | 18 | 0 | 0.0 | 0.0 | 0.00 | 4.83 | 4.83 | 94 | 1019.7 |
| 20260504024044 | 18 | 0 | 0.0 | 0.0 | 0.00 | 4.83 | 4.83 | 95 | 1019.7 |
| 20260504023542 | 18 | 0 | 0.0 | 0.0 | 0.00 | 4.83 | 4.83 | 96 | 1019.7 |
| 20260504023049 | 18 | 0 | 0.0 | 0.0 | 0.00 | 4.83 | 4.83 | 95 | 1019.7 |
| 20260504022543 | 18 | 0 | 0.0 | 0.0 | 0.00 | 4.83 | 4.83 | 95 | 1019.7 |
| 20260504022042 | 18 | 0 | 0.0 | 0.0 | 0.00 | 4.83 | 4.83 | 96 | 1019.7 |
| 20260504021552 | 18 | 0 | 0.0 | 0.0 | 0.03 | 4.83 | 4.83 | 95 | 1019.8 |
| 20260504021043 | 18 | 0 | 0.0 | 0.0 | 0.08 | 4.83 | 4.83 | 95 | 1019.7 |
| 20260504020543 | 18 | 0 | 0.0 | 0.0 | 0.13 | 4.83 | 4.83 | 95 | 1019.6 |
| 20260504020058 | 18 | 0 | 0.0 | 0.0 | 0.18 | 4.83 | 4.83 | 95 | 1019.5 |
| 20260504015539 | 18 | 0 | 0.0 | 0.0 | 0.18 | 4.83 | 4.83 | 96 | 1019.5 |
| 20260504015039 | 18 | 0 | 0.0 | 0.0 | 0.20 | 4.83 | 4.83 | 95 | 1019.4 |
| 20260504014549 | 18 | 0 | 0.0 | 0.0 | 0.23 | 4.83 | 4.83 | 95 | 1019.4 |
| 20260504014039 | 18 | 0 | 0.0 | 0.0 | 0.36 | 4.83 | 4.83 | 96 | 1019.3 |
| 20260504013543 | 18 | 0 | 0.0 | 0.0 | 0.66 | 4.83 | 4.83 | 96 | 1019.0 |
| 20260504013053 | 18 | 0 | 0.0 | 0.0 | 1.22 | 4.83 | 4.83 | 96 | 1018.9 |
| 20260504012539 | 18 | 0 | 0.0 | 0.0 | 1.80 | 4.83 | 4.83 | 96 | 1018.7 |
| 20260504012039 | 18 | 0 | 0.0 | 0.0 | 2.44 | 4.83 | 4.83 | 96 | 1018.8 |
| 20260504011553 | 18 | 0 | 0.0 | 0.0 | 3.33 | 4.80 | 4.80 | 96 | 1018.8 |
| 20260504011042 | 18 | 0 | 0.0 | 0.0 | 3.66 | 4.75 | 4.75 | 96 | 1019.1 |
| 20260504010540 | 17 | 0 | 0.0 | 0.0 | 3.66 | 4.70 | 4.70 | 96 | 1019.3 |
| 20260504010059 | 17 | 0 | 0.0 | 0.0 | 3.63 | 4.65 | 4.65 | 96 | 1019.4 |
| 20260504005542 | 17 | 0 | 0.0 | 0.0 | 3.63 | 4.65 | 4.65 | 96 | 1019.7 |
| 20260504005042 | 17 | 0 | 0.0 | 0.0 | 3.61 | 4.62 | 4.62 | 95 | 1019.8 |
| 20260504004551 | 17 | 0 | 0.0 | 0.0 | 3.56 | 4.57 | 4.57 | 94 | 1019.9 |
| 20260504004041 | 17 | 0 | 0.0 | 0.0 | 3.45 | 4.47 | 4.47 | 93 | 1019.9 |
| 20260504003541 | 18 | 0 | 0.0 | 0.0 | 3.10 | 4.11 | 4.11 | 93 | 1020.4 |
| 20260504003053 | 18 | 0 | 0.0 | 3.2 | 2.57 | 3.58 | 3.58 | 93 | 1020.5 |
| 20260504002541 | 18 | 0 | 0.0 | 3.2 | 1.96 | 2.95 | 2.95 | 92 | 1020.4 |
| 20260504002041 | 20 | 0 | 0.0 | 3.2 | 1.32 | 2.34 | 2.34 | 89 | 1020.3 |
| 20260504001558 | 21 | 0 | 0.0 | 0.0 | 0.43 | 1.45 | 1.45 | 93 | 1020.3 |
| 20260504001043 | 21 | 0 | 0.0 | 0.0 | 0.08 | 1.09 | 1.09 | 92 | 1019.9 |
| 20260504000541 | 21 | 0 | 0.0 | 0.0 | 0.03 | 1.04 | 1.04 | 91 | 1019.4 |
| 20260504000054 | 21 | 0 | 0.0 | 0.0 | 0.00 | 1.02 | 1.02 | 92 | 1019.3 |
| 20260503235541 | 21 | 0 | 0.0 | 0.0 | 0.00 | 1.02 | 1.02 | 91 | 1019.0 |
| 20260503235042 | 21 | 0 | 0.0 | 0.0 | 0.00 | 1.02 | 1.02 | 91 | 1018.8 |
| 20260503234550 | 21 | 0 | 0.0 | 0.0 | 0.00 | 1.02 | 1.02 | 89 | 1018.6 |
| 20260503234041 | 21 | 0 | 0.0 | 0.0 | 0.00 | 1.02 | 1.02 | 89 | 1018.3 |
| 20260503233540 | 20 | 0 | 0.0 | 0.0 | 0.00 | 1.02 | 1.02 | 92 | 1018.1 |
| 20260503233052 | 20 | 0 | 0.0 | 0.0 | 0.13 | 1.02 | 1.02 | 93 | 1018.0 |
| 20260503232545 | 20 | 0 | 0.0 | 0.0 | 0.38 | 1.02 | 1.02 | 94 | 1017.9 |
| 20260503232041 | 20 | 0 | 0.0 | 0.0 | 0.38 | 1.02 | 1.02 | 95 | 1018.0 |
| 20260503231555 | 20 | 0 | 0.0 | 0.0 | 0.38 | 1.02 | 1.02 | 95 | 1018.0 |
| 20260503231041 | 20 | 0 | 0.0 | 0.0 | 0.38 | 1.02 | 1.02 | 95 | 1018.0 |
| 20260503230542 | 20 | 0 | 0.0 | 0.0 | 0.38 | 1.02 | 1.02 | 95 | 1018.1 |
| 20260503230110 | 21 | 0 | 0.0 | 0.0 | 0.38 | 1.02 | 1.02 | 94 | 1018.3 |
| 20260503225542 | 21 | 0 | 0.0 | 0.0 | 0.38 | 1.32 | 1.02 | 93 | 1018.2 |
| 20260503225041 | 21 | 0 | 0.0 | 0.0 | 0.38 | 1.32 | 1.02 | 93 | 1018.2 |
| 20260503224552 | 21 | 0 | 0.0 | 0.0 | 0.38 | 1.32 | 1.02 | 92 | 1018.4 |
| 20260503224043 | 21 | 0 | 0.0 | 0.0 | 0.38 | 1.32 | 1.02 | 91 | 1018.5 |
| 20260503223541 | 22 | 0 | 0.0 | 0.0 | 0.38 | 1.32 | 1.02 | 89 | 1018.5 |
| 20260503223107 | 22 | 0 | 0.0 | 0.0 | 0.23 | 1.19 | 0.86 | 88 | 1018.6 |
| 20260503222543 | 23 | 0 | 0.0 | 0.0 | 0.00 | 0.97 | 0.64 | 86 | 1018.7 |
| 20260503222041 | 23 | 0 | 0.0 | 0.0 | 0.00 | 0.97 | 0.64 | 84 | 1018.7 |
| 20260503221558 | 23 | 0 | 0.0 | 0.0 | 0.00 | 0.97 | 0.64 | 82 | 1018.6 |
| 20260503221045 | 23 | 0 | 0.0 | 0.0 | 0.00 | 0.97 | 0.64 | 81 | 1018.4 |
| 20260503220542 | 23 | 0 | 0.0 | 0.0 | 0.00 | 0.97 | 0.64 | 80 | 1018.5 |
| 20260503220052 | 23 | 0 | 0.0 | 0.0 | 0.00 | 0.97 | 0.64 | 80 | 1018.5 |
| 20260503215542 | 24 | 0 | 0.0 | 0.0 | 0.00 | 0.97 | 0.64 | 79 | 1018.6 |
| 20260503215041 | 24 | 0 | 0.0 | 0.0 | 0.00 | 0.97 | 0.64 | 77 | 1018.6 |
| 20260503214554 | 25 | 0 | 0.0 | 0.0 | 0.00 | 0.97 | 0.64 | 76 | 1018.4 |
| 20260503214041 | 25 | 0 | 0.0 | 0.0 | 0.00 | 0.97 | 0.64 | 75 | 1018.4 |
| 20260503213541 | 25 | 0 | 0.0 | 0.0 | 0.00 | 0.97 | 0.64 | 78 | 1018.6 |
| 20260503213049 | 24 | 0 | 0.0 | 0.0 | 0.00 | 0.97 | 0.64 | 77 | 1018.7 |
| 20260503212541 | 24 | 0 | 0.0 | 0.0 | 0.00 | 0.97 | 0.64 | 77 | 1018.8 |
| 20260503212041 | 24 | 0 | 0.0 | 0.0 | 0.00 | 0.97 | 0.64 | 79 | 1018.6 |
| 20260503211551 | 24 | 0 | 0.0 | 0.0 | 0.00 | 0.97 | 0.64 | 79 | 1018.6 |
| 20260503211041 | 24 | 0 | 0.0 | 0.0 | 0.00 | 0.97 | 0.64 | 78 | 1018.6 |
| 20260503210539 | 24 | 0 | 0.0 | 0.0 | 0.00 | 0.97 | 0.64 | 77 | 1018.4 |
| 20260503210052 | 24 | 0 | 0.0 | 0.0 | 0.00 | 0.97 | 0.64 | 79 | 1018.5 |
| 20260503205542 | 24 | 0 | 0.0 | 0.0 | 0.00 | 0.97 | 0.64 | 81 | 1018.7 |
| 20260503205042 | 24 | 0 | 0.0 | 0.0 | 0.00 | 0.97 | 0.64 | 82 | 1018.7 |
| 20260503204550 | 24 | 0 | 0.0 | 0.0 | 0.00 | 0.97 | 0.64 | 81 | 1018.7 |
| 20260503204041 | 24 | 0 | 0.0 | 0.0 | 0.00 | 0.97 | 0.64 | 82 | 1018.8 |
| 20260503203540 | 24 | 0 | 0.0 | 0.0 | 0.00 | 0.97 | 0.64 | 80 | 1018.8 |
| 20260503203049 | 23 | 0 | 0.0 | 0.0 | 0.00 | 0.97 | 0.64 | 80 | 1018.8 |
| 20260503202541 | 23 | 0 | 0.0 | 0.0 | 0.00 | 0.97 | 0.64 | 84 | 1019.0 |
| 20260503202040 | 23 | 0 | 0.0 | 0.0 | 0.00 | 0.97 | 0.64 | 85 | 1018.9 |
| 20260503201551 | 22 | 0 | 0.0 | 0.0 | 0.00 | 0.97 | 0.64 | 87 | 1018.9 |
| 20260503201313 | 22 | 0 | 0.0 | 0.0 | 0.00 | 0.97 | 0.64 | 87 | 1019.1 |
| 20260503173113 | 25 | 0 | 0.0 | 0.0 | 0.00 | 0.33 | 0.00 | 76 | 1020.8 |
| 20260503110541 | 20 | 0 | 0.0 | 0.0 | 0.00 | 0.33 | 0.00 | 88 | 1018.8 |
| 20260503081548 | 20 | 0 | 0.0 | 0.0 | 0.00 | 0.33 | 0.00 | 87 | 1018.3 |
| 20260503081046 | 20 | 0 | 0.0 | 0.0 | 0.00 | 0.33 | 0.00 | 86 | 1018.4 |
| 20260503080544 | 20 | 0 | 0.0 | 0.0 | 0.00 | 0.33 | 0.00 | 86 | 1018.4 |